Flight Track Log - Related Links

Times and Time Zones

All times are in EDT time to prevent confusion due to time zone crossing. See the FDX649 flight status page for this flight to view local times or setup timezone preferences in your user account.

Time Position Orientation Groundspeed Altitude Reporting Facility
EDT Latitude Longitude Course Direction KTS MPH feet Rate Location/Type
08:16AM 40.6973 -74.1654 204° Southwest 80 92  Level FlightAware ADS-B
08:16AM 40.6834 -74.1743 206° Southwest 148 170 200 1,765 Climbing FlightAware ADS-B
08:16AM 40.6761 -74.1782 202° Southwest 164 189 1,000 4,400 Climbing FlightAware ADS-B
08:17AM 40.6725 -74.1791 191° South 166 191 1,300 3,333 Climbing FlightAware ADS-B
08:17AM 40.6695 -74.1793 183° South 172 198 1,500 3,000 Climbing FlightAware ADS-B
08:17AM 40.6661 -74.1791 177° South 175 201 1,700 3,000 Climbing FlightAware ADS-B
08:17AM 40.6578 -74.1783 176° South 185 213 2,200 2,250 Climbing FlightAware ADS-B
08:17AM 40.6524 -74.1780 178° South 200 230 2,300 1,200 Climbing FlightAware ADS-B
08:17AM 40.6482 -74.1787 187° South 209 241 2,400 667 Climbing FlightAware ADS-B
08:17AM 40.6439 -74.1807 199° South 211 243 2,400  Level FlightAware ADS-B
08:17AM 40.6274 -74.1898 203° Southwest 236 272 2,400  Level FlightAware ADS-B
08:18AM 40.6140 -74.1971 202° Southwest 256 295 2,400  Level FlightAware ADS-B
08:18AM 40.6040 -74.2034 206° Southwest 255 293 2,400 333 Level FlightAware ADS-B
08:18AM 40.5950 -74.2096 208° Southwest 255 293 2,500 800 Climbing FlightAware ADS-B
08:18AM 40.5886 -74.2183 226° Southwest 255 293 2,600 1,200 Climbing FlightAware ADS-B
08:18AM 40.5848 -74.2278 242° Southwest 257 296 2,800 2,000 Climbing FlightAware ADS-B
08:18AM 40.5829 -74.2400 258° West 260 299 3,100 2,000 Climbing FlightAware ADS-B
08:18AM 40.5828 -74.2464 269° West 261 300 3,200 1,714 Climbing FlightAware ADS-B
08:18AM 40.5830 -74.2511 273° West 262 302 3,300 2,308 Climbing FlightAware ADS-B
08:19AM 40.5867 -74.2667 287° West 269 310 3,700 2,333 Climbing FlightAware ADS-B
08:19AM 40.5922 -74.2776 304° West 272 313 4,000 2,769 Climbing FlightAware ADS-B
08:19AM 40.5966 -74.2836 314° West 275 316 4,300 3,600 Climbing FlightAware ADS-B
08:19AM 40.6020 -74.2885 325° Northwest 277 319 4,600 3,818 Climbing FlightAware ADS-B
08:19AM 40.6070 -74.2923 330° Northwest 277 319 5,000 4,667 Climbing FlightAware ADS-B
08:19AM 40.6120 -74.2944 342° North 277 319 5,300 6,000 Climbing FlightAware ADS-B
08:19AM 40.6186 -74.2963 348° North 273 314 5,800 5,000 Climbing FlightAware ADS-B
08:19AM 40.6351 -74.3004 349° North 274 315 6,800 4,235 Climbing FlightAware ADS-B
08:19AM 40.6397 -74.3018 347° North 276 318 7,000 3,529 Climbing FlightAware ADS-B
08:20AM 40.6558 -74.3064 348° North 282 325 7,800 3,750 Climbing FlightAware ADS-B
08:20AM 40.6596 -74.3075 348° North 283 326 8,000 3,857 Climbing FlightAware ADS-B
08:20AM 40.6733 -74.3128 344° North 286 329 8,700 4,000 Climbing FlightAware ADS-B
08:20AM 40.6749 -74.3143 325° Northwest 285 328 8,800 4,500 Climbing FlightAware ADS-B
08:20AM 40.6788 -74.3168 334° Northwest 285 328 9,000 4,500 Climbing FlightAware ADS-B
08:20AM 40.6795 -74.3177 316° Northwest 285 328 9,100 2,625 Climbing FlightAware ADS-B
08:20AM 40.6966 -74.3312 329° Northwest 290 334 9,700 1,800 Climbing FlightAware ADS-B
08:20AM 40.7144 -74.3445 330° Northwest 301 346 10,000 1,059 Climbing FlightAware ADS-B
08:20AM 40.7165 -74.3463 327° Northwest 302 348 10,000 1,500 Level FlightAware ADS-B
08:21AM 40.7402 -74.3636 331° Northwest 328 377 10,500 1,800 Climbing FlightAware ADS-B
08:21AM 40.7561 -74.3763 329° Northwest 336 387 10,900 2,276 Climbing FlightAware ADS-B
08:21AM 40.7802 -74.3945 330° Northwest 365 420 11,600 2,444 Climbing FlightAware ADS-B
08:21AM 40.7954 -74.4056 331° Northwest 375 432 12,000 2,182 Climbing FlightAware ADS-B
08:21AM 40.7968 -74.4068 327° Northwest 375 432 12,000 2,000 Level FlightAware ADS-B
08:22AM 40.8080 -74.4178 323° Northwest 383 441 12,300 1,636 Climbing FlightAware ADS-B
08:22AM 40.8116 -74.4228 314° West 385 443 12,300 1,200 Level FlightAware ADS-B
08:22AM 40.8143 -74.4261 317° Northwest 386 444 12,400 2,571 Climbing FlightAware ADS-B
08:22AM 40.8199 -74.4352 309° West 390 449 12,600 2,400 Climbing FlightAware ADS-B
08:22AM 40.8245 -74.4454 301° West 392 451 12,800 2,571 Climbing FlightAware ADS-B
08:22AM 40.8260 -74.4496 295° West 393 452 12,900 3,600 Climbing FlightAware ADS-B
08:22AM 40.8286 -74.4562 298° West 393 452 13,100 3,000 Climbing FlightAware ADS-B
08:22AM 40.8290 -74.4585 283° West 392 451 13,100 3,000 Level FlightAware ADS-B
08:22AM 40.8323 -74.4698 291° West 396 456 13,400 3,000 Climbing FlightAware ADS-B
08:22AM 40.8343 -74.4816 283° West 399 459 13,600 1,800 Climbing FlightAware ADS-B
08:22AM 40.8355 -74.4937 277° West 400 460 13,700 1,333 Climbing FlightAware ADS-B
08:22AM 40.8360 -74.5037 274° West 408 470 13,800 1,200 Climbing FlightAware ADS-B
08:22AM 40.8360 -74.5187 270° West 415 478 13,900 857 Climbing FlightAware ADS-B
08:22AM 40.8359 -74.5211 267° West 416 479 13,900  Level FlightAware ADS-B
08:22AM 40.8353 -74.5314 266° West 418 481 13,900  Level FlightAware ADS-B
08:23AM 40.8334 -74.5463 260° West 411 473 13,900  Level FlightAware ADS-B
08:23AM 40.8333 -74.5488 267° West 409 471 13,900 300 Level FlightAware ADS-B
08:23AM 40.8261 -74.5936 258° West 391 450 14,000 800 Climbing FlightAware ADS-B
08:23AM 40.8208 -74.6191 255° West 395 455 14,300 1,714 Climbing FlightAware ADS-B
08:23AM 40.8188 -74.6263 250° West 400 460 14,400 2,118 Climbing FlightAware ADS-B
08:24AM 40.7990 -74.6944 249° West 385 443 15,500 1,377 Climbing FlightAware ADS-B
08:24AM 40.7799 -74.7568 248° West 335 386 15,800 387 Climbing FlightAware ADS-B
08:25AM 40.7621 -74.8157 248° West 326 375 15,900 387 Climbing FlightAware ADS-B
08:25AM 40.7449 -74.8715 248° West 340 391 16,200 1,000 Climbing FlightAware ADS-B
08:26AM 40.7273 -74.9312 249° West 352 405 16,900 1,377 Climbing FlightAware ADS-B
08:26AM 40.7086 -74.9940 249° West 362 417 17,600 1,574 Climbing FlightAware ADS-B
08:27AM 40.6894 -75.0557 248° West 366 421 18,500 1,733 Climbing FlightAware ADS-B
08:27AM 40.6779 -75.0859 243° Southwest 369 425 18,900 1,688 Climbing FlightAware ADS-B
08:27AM 40.6639 -75.1177 240° Southwest 384 442 19,400 1,625 Climbing FlightAware ADS-B
08:28AM 40.6351 -75.1820 239° Southwest 412 474 20,200 1,574 Climbing FlightAware ADS-B
08:28AM 40.6037 -75.2510 239° Southwest 436 502 21,000 1,377 Climbing FlightAware ADS-B
08:29AM 40.5720 -75.3210 239° Southwest 460 529 21,600 1,475 Climbing FlightAware ADS-B
08:29AM 40.5370 -75.3968 239° Southwest 474 545 22,500 1,967 Climbing FlightAware ADS-B
08:30AM 40.5016 -75.4739 239° Southwest 484 557 23,600 2,032 Climbing FlightAware ADS-B
08:30AM 40.4652 -75.5527 239° Southwest 491 565 24,600 2,323 Climbing FlightAware ADS-B
08:31AM 40.4276 -75.6319 238° Southwest 492 566 26,000 2,857 Climbing FlightAware ADS-B
08:31AM 40.3903 -75.7132 239° Southwest 485 558 27,600 3,238 Climbing FlightAware ADS-B
08:32AM 40.3540 -75.7901 238° Southwest 475 547 29,400 3,194 Climbing FlightAware ADS-B
08:32AM 40.3190 -75.8653 239° Southwest 469 540 30,900 2,656 Climbing FlightAware ADS-B
08:33AM 40.2849 -75.9377 238° Southwest 466 536 32,100 2,361 Climbing FlightAware ADS-B
08:33AM 40.2520 -76.0098 239° Southwest 462 532 33,300 2,323 Climbing FlightAware ADS-B
08:34AM 40.2177 -76.0829 238° Southwest 457 526 34,500 2,557 Climbing FlightAware ADS-B
08:34AM 40.1834 -76.1549 238° Southwest 445 512 35,900 2,323 Climbing FlightAware ADS-B
08:35AM 40.1490 -76.2275 238° Southwest 441 507 36,900 1,455 Climbing FlightAware ADS-B
08:35AM 40.1142 -76.3026 239° Southwest 444 511 37,500 1,000 Climbing FlightAware ADS-B
08:36AM 40.0789 -76.3785 239° Southwest 447 514 38,000 484 Climbing FlightAware ADS-B
08:36AM 40.0470 -76.4481 239° Southwest 448 516 38,000  Level FlightAware ADS-B
08:37AM 40.0147 -76.5202 240° Southwest 448 516 38,000  Level FlightAware ADS-B
08:38AM 39.9798 -76.5941 238° Southwest 448 516 38,000  Level FlightAware ADS-B
08:38AM 39.9447 -76.6702 239° Southwest 449 517 38,000  Level FlightAware ADS-B
08:39AM 39.9124 -76.7393 239° Southwest 448 516 38,000  Level FlightAware ADS-B
08:39AM 39.8773 -76.8149 239° Southwest 446 513 38,000  Level FlightAware ADS-B
08:40AM 39.8449 -76.8836 238° Southwest 445 512 38,000  Level FlightAware ADS-B
08:40AM 39.8109 -76.9564 239° Southwest 445 512 38,000  Level FlightAware ADS-B
08:41AM 39.7780 -77.0251 238° Southwest 445 512 38,000  Level FlightAware ADS-B
08:41AM 39.7427 -77.1003 239° Southwest 446 513 38,000  Level FlightAware ADS-B
08:42AM 39.7095 -77.1710 239° Southwest 446 513 38,000  Level FlightAware ADS-B
08:42AM 39.6766 -77.2395 238° Southwest 448 516 38,000  Level FlightAware ADS-B
08:43AM 39.6428 -77.3106 238° Southwest 451 519 38,000  Level FlightAware ADS-B
08:43AM 39.6100 -77.3796 238° Southwest 452 520 38,000  Level FlightAware ADS-B
08:44AM 39.5766 -77.4509 239° Southwest 451 519 38,000 98 Level FlightAware ADS-B
08:44AM 39.5431 -77.5199 238° Southwest 452 520 38,100 97 Climbing FlightAware ADS-B
08:45AM 39.5079 -77.5936 238° Southwest 452 520 38,100 -90 Level FlightAware ADS-B
08:45AM 39.4696 -77.6741 238° Southwest 454 522 38,000 -92 Descending FlightAware ADS-B
08:46AM 39.4360 -77.7433 238° Southwest 455 524 38,000  Level FlightAware ADS-B
08:46AM 39.3968 -77.8243 238° Southwest 458 527 38,000  Level FlightAware ADS-B
08:47AM 39.3637 -77.9038 242° Southwest 461 531 38,000  Level FlightAware ADS-B
08:48AM 39.3343 -77.9773 243° Southwest 462 532 38,000  Level FlightAware ADS-B
08:48AM 39.3037 -78.0555 243° Southwest 462 532 38,000  Level FlightAware ADS-B
08:49AM 39.2561 -78.1729 242° Southwest 462 532 38,000  Level FlightAware ADS-B
08:50AM 39.2080 -78.2950 243° Southwest 463 533 38,000  Level FlightAware
08:50AM 39.1750 -78.3760 242° Southwest 464 534 38,000  Level FlightAware
08:51AM 39.1380 -78.4670 242° Southwest 464 534 38,000  Level FlightAware
08:51AM 39.1030 -78.5530 242° Southwest 464 534 38,000  Level FlightAware
08:52AM 39.0680 -78.6420 243° Southwest 466 536 38,000  Level FlightAware
08:53AM 39.0360 -78.7200 242° Southwest 465 535 38,000 90 Level FlightAware
08:53AM 39.0020 -78.8030 242° Southwest 463 533 38,100  Climbing FlightAware
08:54AM 38.9820 -78.8520 242° Southwest 465 535 38,000 -74 Descending FlightAware
08:55AM 38.9240 -78.9940 242° Southwest 465 535 38,000  Level FlightAware
08:55AM 38.8890 -79.0790 242° Southwest 465 535 38,000  Level FlightAware
08:56AM 38.8540 -79.1640 242° Southwest 465 535 38,000  Level FlightAware
08:56AM 38.8220 -79.2410 242° Southwest 465 535 38,000  Level FlightAware
08:57AM 38.8130 -79.3530 264° West 477 549 38,000  Level FlightAware
08:57AM 38.7940 -79.4500 256° West 480 552 38,000  Level FlightAware
08:58AM 38.7740 -79.5690 258° West 495 570 38,000 86 Level FlightAware
08:59AM 38.7560 -79.6630 256° West 500 575 38,100 91 Climbing FlightAware
08:59AM 38.7380 -79.7620 257° West 505 581 38,100 -85 Level FlightAware
09:00AM 38.7180 -79.8700 257° West 504 580 38,000 -85 Descending FlightAware
09:00AM 38.7000 -79.9650 256° West 503 579 38,000  Level FlightAware
09:01AM 38.6830 -80.0560 257° West 503 579 38,000  Level FlightAware
09:02AM 38.6620 -80.1740 257° West 503 579 38,000  Level FlightAware
09:02AM 38.6430 -80.2750 256° West 504 580 38,000  Level FlightAware
09:03AM 38.6230 -80.3730 255° West 504 580 38,000  Level FlightAware
09:03AM 38.6060 -80.4620 256° West 504 580 38,000  Level FlightAware
09:04AM 38.5880 -80.5530 256° West 504 580 38,000  Level FlightAware
09:05AM 38.5710 -80.6410 256° West 504 580 38,000  Level FlightAware
09:05AM 38.5420 -80.8040 257° West 501 577 38,000  Level FlightAware
09:06AM 38.5230 -80.9020 256° West 500 575 38,000  Level FlightAware
09:06AM 38.5020 -81.0110 256° West 503 579 38,000  Level FlightAware
09:07AM 38.4830 -81.1060 256° West 504 580 38,000  Level FlightAware
09:08AM 38.4620 -81.2100 256° West 505 581 38,000  Level FlightAware
09:08AM 38.4430 -81.3050 256° West 506 582 38,000 87 Level FlightAware
09:09AM 38.4230 -81.4060 256° West 506 582 38,100 85 Climbing FlightAware
09:09AM 38.4030 -81.5080 256° West 507 583 38,100  Level FlightAware
09:10AM 38.3820 -81.6120 256° West 505 581 38,100 -85 Level FlightAware
09:10AM 38.3610 -81.7120 255° West 503 579 38,000 -83 Descending FlightAware
09:11AM 38.3370 -81.8140 253° West 506 582 38,000  Level FlightAware
09:12AM 38.3130 -81.9010 251° West 505 581 38,000  Level FlightAware
09:12AM 38.2830 -82.0080 250° West 504 580 38,000  Level FlightAware
09:13AM 38.2550 -82.1080 250° West 503 579 38,000  Level FlightAware
09:13AM 38.2280 -82.2050 251° West 501 577 38,000 -269 Level FlightAware
09:14AM 38.2020 -82.2970 250° West 503 579 37,700 -706 Descending FlightAware
09:15AM 38.1740 -82.3940 250° West 502 578 37,200 -583 Descending FlightAware
09:15AM 38.1450 -82.4940 250° West 504 580 37,000 -176 Descending FlightAware
09:16AM 38.1190 -82.5860 250° West 505 581 37,000  Level FlightAware
09:16AM 38.0930 -82.6750 250° West 506 582 37,000  Level FlightAware
09:17AM 38.0630 -82.7810 250° West 504 580 37,000  Level FlightAware
09:17AM 38.0340 -82.8810 250° West 504 580 37,000  Level FlightAware
09:18AM 38.0040 -82.9800 249° West 503 579 37,000  Level FlightAware
09:19AM 37.9780 -83.0720 250° West 501 577 37,000  Level FlightAware
09:19AM 37.9480 -83.1760 250° West 501 577 37,000  Level FlightAware
09:19AM 37.9335 -83.2227 249° West 502 578 37,000  Level FlightAware ADS-B
09:20AM 37.9034 -83.3249 250° West 504 580 37,000  Level FlightAware ADS-B
09:21AM 37.8600 -83.4710 249° West 504 580 37,000  Level FlightAware
09:22AM 37.8350 -83.5560 250° West 503 579 37,000  Level FlightAware
09:22AM 37.8050 -83.6580 250° West 504 580 37,000  Level FlightAware
09:23AM 37.7760 -83.7550 249° West 503 579 37,000  Level FlightAware
09:23AM 37.7450 -83.8560 249° West 502 578 37,000  Level FlightAware
09:24AM 37.7190 -83.9440 250° West 502 578 37,000  Level FlightAware
09:24AM 37.6890 -84.0420 249° West 500 575 37,000  Level FlightAware
09:25AM 37.6620 -84.1290 249° West 500 575 37,000  Level FlightAware
09:26AM 37.6330 -84.2240 249° West 500 575 37,000  Level FlightAware
09:26AM 37.6030 -84.3220 249° West 499 574 37,000  Level FlightAware
09:27AM 37.5770 -84.4090 249° West 499 574 37,000  Level FlightAware
09:27AM 37.5420 -84.5200 248° West 499 574 37,000  Level FlightAware
09:28AM 37.5180 -84.5990 249° West 498 573 37,000  Level FlightAware
09:29AM 37.4860 -84.7010 248° West 498 573 37,000  Level FlightAware
09:29AM 37.4630 -84.7770 249° West 499 574 37,000  Level FlightAware
09:30AM 37.4280 -84.8900 249° West 497 572 37,000  Level FlightAware
09:30AM 37.4068 -84.9572 248° West 498 573 37,000  Level FlightAware ADS-B
09:31AM 37.3807 -85.0409 249° West 499 574 37,000  Level FlightAware ADS-B
09:31AM 37.3550 -85.1218 248° West 500 575 37,000 98 Level FlightAware ADS-B
09:32AM 37.3291 -85.2024 248° West 498 573 37,100  Climbing FlightAware ADS-B
09:32AM 37.3002 -85.2963 249° West 497 572 37,000 -92 Descending FlightAware ADS-B
09:33AM 37.2737 -85.3793 248° West 497 572 37,000  Level FlightAware ADS-B
09:33AM 37.2478 -85.4597 248° West 497 572 37,000  Level FlightAware ADS-B
09:34AM 37.2219 -85.5400 248° West 497 572 37,000  Level FlightAware ADS-B
09:34AM 37.1961 -85.6202 248° West 497 572 37,000  Level FlightAware ADS-B
09:35AM 37.1698 -85.7029 248° West 496 571 37,000  Level FlightAware ADS-B
09:35AM 37.1404 -85.7960 248° West 495 570 37,000  Level FlightAware ADS-B
09:36AM 37.1124 -85.8808 248° West 494 568 37,000 70 Level FlightAware ADS-B
09:37AM 37.0680 -86.0180 248° West 491 565 37,100  Climbing FlightAware
09:37AM 37.0430 -86.0940 248° West 488 562 37,000 -88 Descending FlightAware
09:38AM 37.0090 -86.1980 248° West 486 559 37,000  Level FlightAware
09:38AM 36.9840 -86.2730 247° West 485 558 37,000  Level FlightAware
09:39AM 36.9530 -86.3690 248° West 484 557 37,000  Level FlightAware
09:39AM 36.9270 -86.4440 247° West 486 559 37,000  Level FlightAware
09:40AM 36.9013 -86.5054 242° Southwest 487 560 37,000  Level FlightAware ADS-B
09:40AM 36.8671 -86.5822 241° Southwest 490 564 37,000  Level FlightAware ADS-B
09:41AM 36.8343 -86.6593 242° Southwest 493 567 37,000 98 Level FlightAware ADS-B
09:41AM 36.8006 -86.7341 241° Southwest 494 568 37,100 88 Climbing FlightAware ADS-B
09:42AM 36.7585 -86.8291 241° Southwest 495 570 37,100 -69 Level FlightAware ADS-B
09:43AM 36.7042 -86.9513 241° Southwest 494 568 37,000 -58 Descending FlightAware ADS-B
09:44AM 36.6450 -87.0850 241° Southwest 492 566 37,000 -66 Level FlightAware
09:44AM 36.6050 -87.1740 241° Southwest 490 564 36,900 -545 Descending FlightAware
09:45AM 36.5710 -87.2490 241° Southwest 482 555 36,400 -938 Descending FlightAware
09:45AM 36.5350 -87.3300 241° Southwest 488 562 35,900 -943 Descending FlightAware
09:46AM 36.4950 -87.4190 241° Southwest 491 565 35,300 -750 Descending FlightAware
09:47AM 36.4550 -87.5070 241° Southwest 500 575 35,000 -250 Descending FlightAware
09:47AM 36.4140 -87.5990 241° Southwest 510 587 35,000  Level FlightAware
09:48AM 36.3780 -87.6780 241° Southwest 507 583 35,000 -783 Level FlightAware
09:48AM 36.3330 -87.7750 240° Southwest 494 568 34,100 -1,360 Descending FlightAware
09:49AM 36.2900 -87.8690 240° Southwest 503 579 33,300 -1,235 Descending FlightAware
09:50AM 36.2560 -87.9440 241° Southwest 500 575 32,700 -537 Descending FlightAware
09:50AM 36.2200 -88.0220 240° Southwest 500 575 32,700  Level FlightAware
09:51AM 36.1840 -88.0980 240° Southwest 500 575 32,700 -2,810 Level FlightAware
09:51AM 36.1270 -88.2230 241° Southwest 475 547 29,000 -3,117 Descending FlightAware
09:52AM 36.0950 -88.2920 240° Southwest 475 547 28,700 -254 Descending FlightAware
09:53AM 36.0610 -88.3660 240° Southwest 475 547 28,700  Level FlightAware
09:53AM 36.0270 -88.4380 240° Southwest 475 547 28,700  Level FlightAware
09:54AM 35.9920 -88.5120 240° Southwest 475 547 28,700  Level FlightAware
09:54AM 35.9580 -88.5860 240° Southwest 475 547 28,700  Level FlightAware
09:55AM 35.9240 -88.6580 240° Southwest 475 547 28,700 -2,732 Level FlightAware
09:56AM 35.8283 -88.8592 240° Southwest 445 512 23,600 -2,647 Descending Memphis Center
09:57AM 35.7672 -88.9883 240° Southwest 445 512 22,700 -1,100 Descending Memphis Center
09:58AM 35.7039 -89.1044 236° Southwest 435 501 21,400 -1,650 Descending Memphis Center
09:59AM 35.6339 -89.1972 227° Southwest 421 484 19,400 -2,050 Descending Memphis Center
10:00AM 35.5575 -89.2953 226° Southwest 405 466 17,300 -2,500 Descending Memphis Center
10:01AM 35.4833 -89.3906 226° Southwest 396 456 14,400 -2,300 Descending Memphis Center
10:02AM 35.4150 -89.4781 226° Southwest 374 430 12,700 -1,400 Descending Memphis Center
10:03AM 35.3531 -89.5578 226° Southwest 340 391 11,600 -950 Descending Memphis Center
10:04AM 35.2972 -89.6269 225° Southwest 303 349 10,800 -750 Descending Memphis Center
10:05AM 35.2433 -89.6986 227° Southwest 292 336 10,100 -700 Descending Memphis Center
10:06AM 35.1917 -89.7650 226° Southwest 268 308 9,400 -700 Descending Memphis Center
10:07AM 35.1439 -89.8239 225° Southwest 249 287 8,700 -850 Descending Memphis Center
10:08AM 35.0939 -89.8697 217° Southwest 242 278 7,700 -1,100 Descending Memphis Center
10:09AM 35.0272 -89.8678 179° South 225 259 6,500 -1,450 Descending Memphis Center
10:10AM 34.9606 -89.8681 180° South 239 275 4,800 -1,600 Descending Memphis Center
10:11AM 34.8978 -89.8683 180° South 239 275 3,300 -1,250 Descending Memphis Center
10:12AM 34.8689 -89.9167 234° Southwest 187 215 2,300 -839 Descending Memphis Center
10:13AM 34.9000 -89.9333 336° Northwest 180 207 2,000 -194 Descending KMEM
10:14AM 34.9333 -89.9667 321° Northwest 162 186 2,000 -300 Level KMEM
10:15AM 34.9667 -89.9667 360° North 149 171 1,400 -700 Descending KMEM
10:16AM 35.0167 -89.9667 360° North 154 177 600 -800 Descending KMEM
10:18AM 35.0333 -89.9667 345° North  Level FlightAware Approximate
10:25AM 35.0424 -89.9767 345° North  Level Estimated
10:26AM 35.0424 -89.9767 345° North  Level Estimated
10:27AM 35.0424 -89.9767 345° North  Level Estimated
10:28AM 35.0424 -89.9767 345° North  Level Estimated
10:29AM 35.0424 -89.9767 345° North  Level Estimated
10:30AM 35.0424 -89.9767 345° North  Level Estimated
10:31AM 35.0424 -89.9767 345° North  Level Estimated
10:32AM 35.0424 -89.9767 345° North  Level Estimated
10:33AM 35.0424 -89.9767 345° North  Level Estimated

Login

Don't have an account? Register now (free) for customized features, flight alerts, and more!